Location: Unspecified
(0.0000°N, 0.0000°E)
Time: 16:23:56
(UTC+00:00)

Tiros 1 despin weight - Pass Details

Date: 22 November 2019
Orbit: 594 x 642 km, 48.2° (Epoch: 12 December)

Event Time Altitude Azimuth Distance (km) Brightness Sun altitude
Rises 09:50:12 0° 247° (WSW) 2,855 ? 55.2°
Reaches altitude 10° 09:53:07 10° 266° (W) 1,940 ? 55.8°
Maximum altitude 09:56:10 18° 309° (NW) 1,470 ? 56.4°
Drops below altitude 10° 09:59:13 10° 353° (N) 1,919 ? 57.0°
Sets 10:02:05 0° 13° (NNE) 2,813 ? 57.6°
